Location: DaVinci Observatory
(43.1080°N, 78.6453°W)
Time: 20:11:17
(UTC-04:00)

Envisat - Pass Details

Date: 16 October 2017
Orbit: 764 x 766 km, 98.2° (Epoch: 16 October)

Event Time Altitude Azimuth Distance (km) Brightness Sun altitude
Exits shadow 22:26:29 14° 291° (WNW) 2,052 5.7 -42.5°
Drops below altitude 10° 22:27:55 10° 306° (NW) 2,308 6.1 -42.7°
Sets 22:31:13 0° 329° (NNW) 3,239 6.9 -43.2°
